Showing default

COURIER 1B, 58

Orbit data source: Space-Track

COURIER 1B, 58 is a payload satellite owned by SCEL (US) in LEO that was launched on Tue, 04 Oct 1960 UTC via a THOR ABLESTAR launch vehicle from the Air Force Eastern Test Range (AFETR). Payload-class satellites include a variety of spacecraft equipped with specific instruments for various scientific and technological missions. These include communications satellites like Starlink; space stations such as the ISS; scientific satellites like the Hubble; Earth observation satellites from companies like Planet Labs, Umbra, and HawkEye 360; GPS; miniature CubeSats for education and research; and military/defense satellites.

Loading next visibility...
Identifier
58, 1960-013A
Orbit
LEO
Country
Flag of USUS
Related business
Manufacturer
SCEL/PHLP
Mission
Spacecraft
Bus & Motor
COURIER, Unknown motor
Mass
225 kg wet, 225 kg dry
Launch date (UTC)
1960-10-04 (65 years ago)
Launch vehicle
THOR ABLESTAR
Launch site
Air Force Eastern Test Range (AFETR)
Object type
Payload
Rocket body
Debris
Shape & HBR
Unknown
Radar Cross Section
Large (>1 m²)

Expand to show TLE details & history
Last TLE update: 20 hours ago

TLE from 20 hours ago
0 COURIER 1B
1 00058U 60013A   26037.17433915  .00000125  00000-0  56645-4 0  9992
2 00058  28.3280  84.5090 0164753 202.9155 156.3969 13.46424093216390
Epoch: 2026-02-06T04:11Z
TLE epoch observation values (Epoch: 2026-02-06T04:11:02.902Z)
Latitude
0.00001°
Longitude
-114.56908°
Altitude
1,196.792 km
Speed
7.203 km/s
True Right ascension
05h 38m 02s
True Declination
0° 00' 00"
Sunlit
Object was in full shadow at epoch
Visualization orbit readout
Latitude
Unknown
Longitude
Unknown
Altitude
Unknown
Speed
Unknown
Apparent Right ascension
Unknown
Apparent Declination
Unknown
Sunlit
N/A
Visualization observer readout
Local Sidereal Time
02:14:17
Azimuth
Unknown
Elevation
Unknown
Doppler factor
Unknown
Orbital elements
Apogee altitude
1,212.389 km
Perigee altitude
966.33 km
Semi-major axis
7,467.497 km
Eccentricity
0.01648
Inclination
28.328°
RAAN
84.509°
Arg. of periapsis
202.9155°
True anomaly
157.13879°
Mean anomaly
156.3969°
Eccentric anomaly
156.76923°
Mean motion
3.36342 °/min
Orbital period
107.03 mins
BSTAR
0.000056645
Loading maneuver chart data...
Computing Atmospheric mass density...
Loading historical data...
Loading historical data...
Loading historical data...
Loading historical data...
Loading historical data...
Loading historical data...
Loading historical data...
Other satellites on launch #13 in the year 1960 (1960-10-04 UTC)

Documentation

Showing up to 5 results
|